Regional Weather Roundup
Issued by NWS Jackson, KY

Home | Current Version | Previous Version | Text Only | Print | Product List | Glossary On
Versions: 1 2 3 4 5 6 7 8 9 10 11 12 13 14 15 16 17 18 19 20 21 22 23 24 25 26 27 28 29 30 31 32 33 34 35 36 37 38 39 40 41 42 43 44 45 46 47 48 49 50
000
ASUS43 KJKL 250310
RWRJKL

EAST KENTUCKY HOURLY WEATHER ROUNDUP
NATIONAL WEATHER SERVICE JACKSON KY
1100 PM EDT FRI MAR 24 2017

NOTE: "FAIR" INDICATES FEW OR NO CLOUDS BELOW 12,000 FEET WITH
NO SIGNIFICANT WEATHER AND/OR OBSTRUCTIONS TO VISIBILITY.

* THESE REPORTS ARE NOT UNDER NWS QUALITY CONTROL AND MAY NOT
  REPORT WEATHER SUCH AS PRECIPITATION AND FOG.

KYZ079-080-083-085-087-088-110-112-115-119-120-250400
...EASTERN KENTUCKY...

CITY           SKY/WX    TMP DP  RH WIND       PRES   REMARKS
JACKSON        CLEAR     64  48  56 VRB7      30.23S
LONDON         PTCLDY    63  46  54 S5        30.23F
SOMERSET*      MOCLDY    61  46  59 S3        30.23F
MONTICELLO*    MOCLDY    64  49  57 VRB6      30.23F
WILLIAMSBURG*  PTCLDY    63  48  59 SE7       30.24F
MIDDLESBORO*   PTCLDY    62  48  61 CALM      30.27S
HARLAN APT*    PTCLDY    63  45  51 SW3       30.28S
PIKE CO APT*     N/A     65  49  56 S6        30.24R
BIG SANDY APT* PTCLDY    67  49  53 SW7       30.22S
MOREHEAD APT*  PTCLDY    66  48  52 S10       30.20S
ASHLAND*       PTCLDY    57  52  82 SW5       30.15S
$$

KYZ035-036-041-042-044-050-067-078-099-250400
...CENTRAL KENTUCKY...

CITY           SKY/WX    TMP DP  RH WIND       PRES   REMARKS
MT STERLING*   MOCLDY    64  50  59 SW12G17   30.19F
FLEMING/MASON* CLOUDY    63  50  63 S10       30.17S
DANVILLE*      CLOUDY    63  50  63 S13G21    30.18F
LEXINGTON      MOCLDY    66  49  54 S17       30.15F
FRANKFORT      CLOUDY    67  50  54 S9        30.13S
LOUISVILLE     MOCLDY    69  50  50 SW6       30.13R
GLASGOW*       CLOUDY    66  51  58 S8        30.16R
BOWLING GREEN  CLOUDY    68  52  56 S10       30.13S
$$

KYZ091>093-OHZ055-061-077-WVZ005-015-034-035-042-250400
...SOUTHERN OHIO/WEST VIRGINIA...

CITY           SKY/WX    TMP DP  RH WIND       PRES   REMARKS
COVINGTON      CLOUDY    67  52  58 SW8       30.14R
COLUMBUS       PTCLDY    65  53  65 S6        30.13R
DAYTON         MOCLDY    64  52  64 SW10      30.12R
WILMINGTON     CLOUDY    62  52  69 SW9       30.13R
HUNTINGTON     PTCLDY    68  48  48 S6        30.18R
CHARLESTON     CLOUDY    68  46  45 S7        30.18S
PINEVILLE*     CLOUDY    53  45  74 MISG      30.30S
BECKLEY        MOCLDY    62  45  53 SW9       30.27R
BLUEFIELD      CLOUDY    59  43  55 SW6       30.31R
LOGAN CO APT*    N/A     66  46  48 CALM      30.23R
$$

VAZ002-007-008-TNZ017-027-036-066-071-250400
...SOUTHWEST VIRGINIA/EAST TENNESSEE...

CITY           SKY/WX    TMP DP  RH WIND       PRES   REMARKS
WISE*          PTCLDY    59  45  58 SW10      30.31R
JONESVILLE*      N/A     59  48  67 CALM      30.30S
ABINGDON*      PTCLDY    61  48  60 W7        30.31R
BRISTOL        PTCLDY    61  47  59 S3        30.30R
MORRISTOWN*    MOCLDY    63  48  59 SW5       30.28S
SEVIERVILLE*   CLEAR     61  45  55 SW3       30.28S
KNOXVILLE      MOCLDY    63  45  51 S8        30.26F
LAFOLLETTE*    PTCLDY    63  48  59 S8        30.29S
OAK RIDGE      PTCLDY    63  46  54 S3        30.27F
CROSSVILLE     CLOUDY    62  45  53 S8        30.25F
NASHVILLE      CLOUDY    68  52  56 S12       30.16R
$$

...KEY TO REMARKS...
VSB - VISIBILITY IN MILES
WCI - WIND CHILL INDEX
HX  - HEAT INDEX

$$



USA.gov is the U.S. government's official web portal to all federal, state and local government web resources and services.